星链-35134(STARLINK-35134)

导读

STARLINK-35134是美国SpaceX星链卫星互联网项目的卫星,于2025年9月18日发射升空。星链计划旨在构建全球卫星互联网星座,为全球偏远地区、海洋空域等场景提供低成本高速互联网接入,该卫星入列后将进一步扩充星链星座规模,提升全球网络覆盖能力与服务稳定性。

基本信息
目录编号:
65641
目录名称:
STARLINK-35134
国际标识:
2025-210V
轨道中心:
EARTH
卫星名称:
星链-35134
卫星全名:
星链-35134(STARLINK-35134)
卫星状态:
在轨 (已飞行351 天)
发射日期:
2025-09-18 UTC
国别 :
美国 (US)
星等 :
--
轨道信息
数据来源 国际轨道数据
星历时间: 2026-09-03T13:51:09+0800
22小时前
查看轨道信息
半长轴: 6840.815km
偏心率: 0.0001159
轨道倾角: 53.158°
近地点辐角 84.040°
升交点赤经 198.231°
平近点角 276.073°
近地点: 461.885km
远地点: 463.471km
周期: 93.847分钟
每日圈数: 15.344086
详细信息
固有亮度:
5
最大亮度:
2.5
卫星平台:
Starlink V1.0
覆盖范围:
全球
运营商:
太空探索技术公司
运营商所在国:
美国
制造商(研发单位):
太空探索技术公司
制造商所在国:
美国
使用方式:
暂无
卫星简介
Starlink 计划是 SpaceX 推出的全球卫星互联网项目,通过发射低轨道卫星,为全球尤其是偏远地区提供高速、低延迟的互联网服务。自 2019 年起,Starlink 已部署数千颗卫星,旨在缩小全球数字鸿沟,推动互联网普及。该项目还为军事、航空等行业提供通信支持,带来广泛经济效益。
2D轨道图
3D轨道图
轨道高度分析图
轨道倾角分析图
轨道综合分析图
查看轨道综合分析图
交会数据列表
事件ID 空间交会对象 最接近时刻(TCA) 交会距离 交会风险概率(CRP) 交会风险指数(CRI) 操作
CDM_260905-025406-564106-688521
2026-09-05T
02:54:24+0000
0.368 km
远距离
2.69533E-4 高风险 0.84
CDM_260905-024605-897106-564121
2026-09-05T
02:46:02+0000
0.449 km
远距离
8.871809E-5 中风险 0.74
CDM_260905-012006-564106-688521
2026-09-05T
01:20:37+0000
1.173 km
极远距离
9.836897E-6 低风险 0.55
CDM_260905-042806-564106-688521
2026-09-05T
04:28:11+0000
1.896 km
极远距离
2.175501E-6 低风险 0.42
CDM_260904-213305-248406-564121
2026-09-04T
21:33:57+0000
2.686 km
极远距离
1.333597E-6 低风险 0.38
CDM_260904-234606-564106-688521
2026-09-04T
23:46:49+0000
2.672 km
极远距离
1.07543E-6 低风险 0.36
CDM_260905-041905-897106-564121
2026-09-05T
04:19:49+0000
1.991 km
极远距离
9.260067E-7 极低风险 0.34
CDM_260905-050605-897106-564121
2026-09-05T
05:06:43+0000
2.051 km
极远距离
8.688823E-7 极低风险 0.34